Fort Dodge, IA

7:37 AM CDT on September 18, 2019 (GMT -0500)
Fort Dodge Regional

Weather History for KFOD - August, 2019

Change the Weather History Date:

Wednesday, August 21, 2019

  Actual Average Record
Temperature  
Mean Temperature 66 °F -  
Max Temperature 73 °F 81 °F 100 °F (1955)
Min Temperature 57 °F 60 °F 42 °F (2004)
Cooling Degree Days 1    
Growing Degree Days 16 (Base 50)    
Moisture  
Dew Point 65 °F    
Average Humidity 91    
Maximum Humidity 100    
Minimum Humidity 78    
Precipitation  
Precipitation 0.00 in - - ()
Sea Level Pressure  
Sea Level Pressure 30.11 in    
Wind  
Wind Speed 5 mph (North)    
Max Wind Speed 9 mph    
Max Gust Speed -    
Visibility 10 miles    
Events Rain    
Averages and records for this station are not official NWS values.
T = Trace of Precipitation, MM = Missing Value Source: NWS Daily Summary

Daily Weather History Graph

Daily Weather History Graph

Search for Another Location

Airport or City:

Astronomy

Aug. 21, 2019 Rise Set
Actual Time 6:29 AM CDT 8:09 PM CDT
Civil Twilight 5:59 AM CDT 8:39 PM CDT
Nautical Twilight 5:23 AM CDT 9:15 PM CDT
Astronomical Twilight 4:44 AM CDT 9:53 PM CDT
Moon 11:19 PM CDT (8/21) 12:13 PM CDT (8/21)
Length of Visible Light 14h 39m
Length of Day
13h 39m
Waning Gibbous, 69% of the Moon is Illuminated
Aug 21
Waning Gibbous
Aug 23
Last Quarter
Aug 30
New
Sep 5
First Quarter
Sep 13
Full

Hourly Weather History & Observations

Time (CDT) Temp. Dew Point Humidity Pressure Visibility Wind Dir Wind Speed Gust Speed Precip Events Conditions
12:13 AM 73.4 °F 71.6 °F 94% 30.03 in 10.0 mi North 4.6 mph - N/A   Scattered Clouds
12:56 AM 73.0 °F 71.1 °F 93% 30.09 in 10.0 mi North 6.9 mph - N/A   Partly Cloudy
1:56 AM 72.0 °F 70.0 °F 93% 30.08 in 10.0 mi Variable 3.5 mph - N/A   Clear
2:56 AM 70.0 °F 69.1 °F 97% 30.07 in 10.0 mi NNW 4.6 mph - N/A   Clear
3:56 AM 68.0 °F 68.0 °F 100% 30.04 in 10.0 mi North 8.1 mph - N/A   Clear
4:56 AM 68.0 °F 66.9 °F 96% 30.07 in 10.0 mi North 4.6 mph - N/A   Scattered Clouds
5:03 AM 68.0 °F 66.2 °F 94% 30.01 in 10.0 mi North 5.8 mph - N/A   Mostly Cloudy
5:56 AM 68.0 °F 66.9 °F 96% 30.09 in 7.0 mi North 8.1 mph - N/A   Overcast
6:44 AM 68.0 °F 66.2 °F 94% 30.06 in 8.0 mi North 5.8 mph - N/A   Overcast
6:56 AM 68.0 °F 66.9 °F 96% 30.12 in 9.0 mi North 8.1 mph - N/A   Overcast
7:23 AM 68.0 °F 66.2 °F 94% 30.06 in 10.0 mi NNW 6.9 mph - N/A   Scattered Clouds
7:49 AM 66.2 °F 66.2 °F 100% 30.08 in 10.0 mi NW 4.6 mph - N/A   Mostly Cloudy
7:56 AM 66.9 °F 66.0 °F 97% 30.14 in 10.0 mi NW 5.8 mph - N/A   Mostly Cloudy
8:30 AM 66.2 °F 66.2 °F 100% 30.07 in 10.0 mi North 5.8 mph - N/A   Scattered Clouds
8:49 AM 66.2 °F 64.4 °F 94% 30.08 in 10.0 mi North 5.8 mph - N/A   Mostly Cloudy
8:56 AM 66.9 °F 64.9 °F 93% 30.14 in 10.0 mi NNW 6.9 mph - N/A   Mostly Cloudy
9:26 AM 66.2 °F 64.4 °F 94% 30.09 in 10.0 mi WNW 3.5 mph - N/A   Overcast
9:56 AM 68.0 °F 64.9 °F 90% 30.19 in 10.0 mi Calm Calm - N/A   Overcast
10:18 AM 68.0 °F 64.4 °F 88% 30.10 in 10.0 mi Variable 4.6 mph - N/A   Scattered Clouds
10:56 AM 69.1 °F 64.0 °F 84% 30.15 in 10.0 mi North 9.2 mph - N/A   Partly Cloudy
11:56 AM 69.1 °F 64.0 °F 84% 30.17 in 10.0 mi NE 5.8 mph - N/A   Clear
12:56 PM 70.0 °F 64.0 °F 81% 30.19 in 10.0 mi NE 6.9 mph - N/A   Mostly Cloudy
1:56 PM 69.1 °F 64.0 °F 84% 30.17 in 10.0 mi North 3.5 mph - N/A   Scattered Clouds
2:56 PM 68.0 °F 63.0 °F 84% 30.14 in 10.0 mi North 4.6 mph - 0.00 in   Clear
3:56 PM 68.0 °F 63.0 °F 84% 30.14 in 10.0 mi NW 3.5 mph - N/A   Overcast
4:56 PM 68.0 °F 64.9 °F 90% 30.14 in 10.0 mi Calm Calm - 0.00 in Rain Light Rain
5:56 PM 68.0 °F 64.0 °F 87% 30.12 in 10.0 mi North 3.5 mph - 0.00 in   Overcast
6:56 PM 69.1 °F 62.1 °F 78% 30.11 in 10.0 mi North 3.5 mph - N/A   Clear
7:56 PM 66.9 °F 62.1 °F 84% 30.12 in 10.0 mi Calm Calm - N/A   Clear
8:56 PM 64.0 °F 62.1 °F 93% 30.14 in 10.0 mi North 3.5 mph - N/A   Clear
9:56 PM 62.1 °F 59.0 °F 90% 30.15 in 10.0 mi Calm Calm - N/A   Clear
10:56 PM 59.0 °F 57.0 °F 93% 30.16 in 10.0 mi Calm Calm - N/A   Clear
11:56 PM 57.9 °F 57.0 °F 97% 30.17 in 10.0 mi Calm Calm - N/A   Clear